Find Starlink 35249

NORAD ID: 65901 Int'l Des: 2025-224 Owner: SPXS Country: US Constellation: starlink operational
LEOCIRCULAR

当前视图

正在加载3D地球...

关于 Starlink 35249

正在加载描述...

即将过境

Passes for default location (London). Set your location on the main map for personalized predictions.

高度历史

Loading altitude history...

两行轨道根数

1 65901U 25224V 26150.86443443 .00024692 00000-0 84274-3 0 9997
2 65901 53.1615 349.7797 0001624 163.8743 196.2310 15.30211589 37439
Epoch: May 30, 2026 • Age: 17 hours

当前状态

高度 493.2 km
速度 7.62 km/s
星下点 -50.97°S, 174.23°W
发射日期 Oct 7, 2025
运行时间 0.6 years
类型 internet

技术详情

分类 Payload
质量 575.00 kg
干质量 530.00 kg
总质量 575.00 kg
长度 0.30 m
直径 4.10 m
跨度 29.00 m
形状 Box + pan
制造商 SPXS
平台类型 Starlink V2MO
阶段状态 In Orbit
所有者/国家 SPXS/US

Most Searched